Pecs, Hungary

5:53 PM CEST on April 19, 2018 (GMT +0200)
Pecs

Weather History for LHPP - January, 2013

Change the Weather History Date:

Thursday, January 24, 2013

  Actual Average Record
Temperature  
Mean Temperature 33 °F -  
Max Temperature 37 °F 40 °F - ()
Min Temperature 29 °F 28 °F - ()
Degree Days  
Heating Degree Days 32    
Moisture  
Dew Point 32 °F    
Average Humidity 92    
Maximum Humidity 100    
Minimum Humidity 75    
Precipitation  
Precipitation 0.08 in 0.04 in - ()
Sea Level Pressure  
Sea Level Pressure 29.66 in    
Wind  
Wind Speed 11 mph ()    
Max Wind Speed 24 mph    
Max Gust Speed 33 mph    
Visibility 3.8 miles    
Events Fog , Snow    
T = Trace of Precipitation, MM = Missing Value Source: Averaged Metar Reports

Daily Weather History Graph

Daily Weather History Graph

Search for Another Location

Airport or City:

Astronomy

Jan. 24, 2013 Rise Set
Actual Time 7:18 AM CET 4:40 PM CET
Civil Twilight 6:45 AM CET 5:13 PM CET
Nautical Twilight 6:09 AM CET 5:49 PM CET
Astronomical Twilight 5:33 AM CET 6:25 PM CET
Moon 2:24 PM CET (1/24) 5:04 AM CET (1/24)
Length of Visible Light 10h 28m
Length of Day
9h 22m
Waxing Gibbous, 93% of the Moon is Illuminated
Jan 24
Waxing Gibbous
Jan 27
Full
Feb 3
Last Quarter
Feb 10
New
Feb 17
First Quarter

Hourly Weather History & Observations

Time (CET) Temp. Windchill Dew Point Humidity Pressure Visibility Wind Dir Wind Speed Gust Speed Precip Events Conditions
12:45 AM 30.2 °F 25.4 °F 30.2 °F 100% 29.77 in 0.1 mi ENE 4.6 mph - N/A Fog Light Freezing Fog
1:00 AM 31 °F - 30 °F 95% 29.81 in 0 mi ENE 4.5 mph - - Fog Heavy Fog
1:45 AM 30.2 °F 25.4 °F 30.2 °F 100% 29.77 in 0.1 mi ENE 4.6 mph - N/A Fog Light Freezing Fog
2:45 AM 30.2 °F 24.3 °F 30.2 °F 100% 29.74 in 0.1 mi East 5.8 mph - N/A Fog Light Freezing Fog
3:45 AM 30.2 °F 22.6 °F 30.2 °F 100% 29.71 in 0.1 mi East 8.1 mph - N/A Fog Light Freezing Fog
4:45 AM 32.0 °F 24.2 °F 30.2 °F 93% 29.71 in 0.1 mi East 9.2 mph - N/A Fog Light Freezing Fog
5:06 AM 32.0 °F 23.6 °F 30.2 °F 93% 29.74 in 0.7 mi ENE 10.4 mph - N/A   Overcast
5:15 AM 32.0 °F 23.6 °F 30.2 °F 93% 29.71 in 0.7 mi ENE 10.4 mph - N/A   Overcast
5:29 AM 32.0 °F 24.2 °F 32.0 °F 100% 29.74 in 1.2 mi ENE 9.2 mph - N/A   Overcast
5:41 AM 32.0 °F 24.2 °F 32.0 °F 100% 29.74 in 2.5 mi ENE 9.2 mph - N/A   Overcast
5:45 AM 32.0 °F 24.2 °F 32.0 °F 100% 29.71 in 2.5 mi ENE 9.2 mph - N/A   Overcast
6:00 AM - - - N/A% - 1.9 mi ENE 9.2 mph - N/A   Mostly Cloudy
6:11 AM 32.0 °F 24.2 °F 32.0 °F 100% 29.74 in 3.7 mi ENE 9.2 mph - N/A   Overcast
6:15 AM 33.8 °F 26.4 °F 32.0 °F 93% 29.71 in 3.7 mi ENE 9.2 mph - N/A   Overcast
6:45 AM 33.8 °F 26.4 °F 32.0 °F 93% 29.68 in 5.0 mi ENE 9.2 mph - N/A   Mostly Cloudy
7:00 AM 33 °F - 32 °F 96% 29.73 in 5 mi ENE 8.9 mph - -   Partly Cloudy
7:00 AM - - - N/A% - 1.9 mi ENE 10.4 mph - N/A   Mostly Cloudy
7:15 AM 33.8 °F 24.8 °F 33.8 °F 100% 29.68 in 5.0 mi ENE 12.7 mph - N/A   Mostly Cloudy
7:45 AM 33.8 °F 25.8 °F 32.0 °F 93% 29.68 in 5.0 mi ENE 10.4 mph - N/A   Mostly Cloudy
8:15 AM 33.8 °F 27.0 °F 32.0 °F 93% 29.68 in 4.3 mi ENE 8.1 mph - N/A   Mostly Cloudy
8:45 AM 32.0 °F 23.6 °F 32.0 °F 100% 29.68 in 3.7 mi ENE 10.4 mph - N/A   Mostly Cloudy
9:00 AM - - - N/A% - 4.3 mi East 11.5 mph - N/A   Mostly Cloudy
9:15 AM 32.0 °F 22.1 °F 32.0 °F 100% 29.68 in 3.7 mi ENE 13.8 mph - N/A   Overcast
9:34 AM 33.8 °F 25.3 °F 32.0 °F 93% 29.71 in 3.1 mi ENE 11.5 mph - N/A   Overcast
9:45 AM 33.8 °F 25.3 °F 32.0 °F 93% 29.68 in 3.1 mi ENE 11.5 mph - N/A   Overcast
9:52 AM 33.8 °F 25.3 °F 32.0 °F 93% 29.71 in 3.7 mi ENE 11.5 mph - N/A   Mostly Cloudy
10:15 AM 35.6 °F 25.9 °F 33.8 °F 93% 29.65 in 3.7 mi ENE 16.1 mph - N/A   Mostly Cloudy
10:24 AM 35.6 °F 25.2 °F 33.8 °F 93% 29.68 in - ENE 18.4 mph - N/A   Unknown
10:45 AM 35.6 °F 25.2 °F 32.0 °F 87% 29.65 in 3.7 mi ENE 18.4 mph - N/A   Mostly Cloudy
11:15 AM 35.6 °F 24.5 °F 33.8 °F 93% 29.65 in 3.7 mi ENE 20.7 mph - N/A   Mostly Cloudy
11:45 AM 35.6 °F 24.8 °F 33.8 °F 93% 29.65 in 4.3 mi NE 19.6 mph - N/A   Mostly Cloudy
12:00 PM - - - N/A% - 4.3 mi NE 17.3 mph 28.8 mph N/A   Mostly Cloudy
12:15 PM 35.6 °F 25.2 °F 33.8 °F 93% 29.62 in 6.2 mi NE 18.4 mph - N/A   Mostly Cloudy
12:45 PM 35.6 °F 24.8 °F 33.8 °F 93% 29.59 in 6.2 mi ENE 19.6 mph - N/A   Mostly Cloudy
1:00 PM 36 °F - 33 °F 87% 29.63 in 7 mi ENE 20.1 mph - -   Partly Cloudy
1:15 PM 37.4 °F 26.4 °F 33.8 °F 87% 29.59 in 6.2 mi NE 23.0 mph - N/A   Mostly Cloudy
1:45 PM 37.4 °F 26.9 °F 33.8 °F 87% 29.59 in 6.2 mi NE 20.7 mph - N/A   Mostly Cloudy
2:15 PM 37.4 °F 27.5 °F 33.8 °F 87% 29.59 in 6.2 mi NE 18.4 mph - N/A   Mostly Cloudy
2:45 PM 37.4 °F 26.6 °F 33.8 °F 87% 29.59 in 6.2 mi NE 21.9 mph - N/A   Overcast
3:00 PM - - - N/A% - 6.2 mi NE 17.3 mph 28.8 mph N/A   Overcast
3:15 PM 37.4 °F 26.9 °F 33.8 °F 87% 29.59 in 6.2 mi NE 20.7 mph 33.4 mph N/A   Overcast
3:45 PM 35.6 °F 24.5 °F 33.8 °F 93% 29.59 in 6.2 mi NE 20.7 mph - N/A   Mostly Cloudy
4:15 PM 35.6 °F 24.5 °F 32.0 °F 87% 29.59 in - NE 20.7 mph - N/A   Clear
4:45 PM 35.6 °F 24.5 °F 32.0 °F 87% 29.59 in - NE 20.7 mph 32.2 mph N/A   Clear
5:15 PM 35.6 °F 24.0 °F 30.2 °F 81% 29.59 in - NE 23.0 mph - N/A   Clear
5:45 PM 35.6 °F 24.0 °F 30.2 °F 81% 29.59 in - NE 23.0 mph - N/A   Clear
6:15 PM 35.6 °F 23.7 °F 30.2 °F 81% 29.59 in - NE 24.2 mph - N/A   Clear
6:45 PM 35.6 °F 24.0 °F 30.2 °F 81% 29.62 in - NE 23.0 mph - N/A   Clear
7:00 PM 35 °F - 30 °F 75% 29.65 in 7 mi NE 22.4 mph - -   Partly Cloudy
7:15 PM 33.8 °F 22.5 °F 30.2 °F 87% 29.62 in 6.2 mi NE 19.6 mph - N/A Snow Light Snow
7:45 PM 32.0 °F 20.5 °F 30.2 °F 93% 29.62 in 5.0 mi NNE 18.4 mph - N/A Snow Light Snow
8:15 PM 32.0 °F 20.1 °F 30.2 °F 93% 29.62 in 3.7 mi NNE 19.6 mph - N/A Snow Light Snow
8:45 PM 32.0 °F 20.5 °F 32.0 °F 100% 29.62 in 3.7 mi NNE 18.4 mph - N/A Snow Light Snow
9:45 PM 32.0 °F 20.8 °F 30.2 °F 93% 29.65 in 3.7 mi NNE 17.3 mph - N/A Snow Light Snow
10:45 PM 32.0 °F 21.2 °F 30.2 °F 93% 29.65 in 3.7 mi NNE 16.1 mph - N/A Snow Light Snow
11:45 PM 32.0 °F 21.6 °F 30.2 °F 93% 29.65 in 3.7 mi NNE 15.0 mph - N/A Snow Light Snow